{"data":{"norad_id":52480,"intl_designator":"2022-049AF","name":"STARLINK-3839","alt_names":[],"object_type":"PAYLOAD","status":"ACTIVE","operator":null,"country":"US","launch_date":"2022-05-06","launch_site_code":"AFETR","launch_vehicle":null,"mission":null,"orbit_class":"UNKNOWN","rcs_meters":null,"size_class":null,"mass_kg":null,"dimensions":null,"purposes":["comms"],"wikipedia_slug":null,"has_3d_model":false,"image_url":null,"decayed_at":null,"tle_current":{"epoch":"2026-09-19T14:17:34.824480Z","epoch_age_seconds":141448,"freshness":"FRESH","line1":"1 52480U 22049AF  26262.59554195  .00000020  00000+0  11715-4 0  9997","line2":"2 52480  53.1597 257.6419 0001173  81.0972 279.0163 15.34390398241677","mean_motion":15.34390398,"eccentricity":0.0001173,"inclination_deg":53.1597,"raan_deg":257.6419,"arg_perigee_deg":81.0972,"mean_anomaly_deg":279.0163,"bstar":1.1715e-5,"rev_number":24167,"period_min":93.848345367448,"perigee_km":461.92934561562,"apogee_km":463.5342134313,"semimajor_km":6840.8687795235,"source":"CELESTRAK","updated_at":"2026-09-20T09:00:40.053289Z"}}}